sat.trackr.live / text

‹ back to catalog

STARLINK-33684

NORAD 63649 · 2025-083R

PAYLOAD ACTIVE UNKNOWN

§ Identity

Operator
Country
US
Launch date
2025-04-25
Launch site
AFETR
Launch vehicle
Mass (kg)
RCS (m²)

Purposes: comms

External: N2YO · Heavens-Above · Gunter

§ Orbital elements

Epoch: 2026-09-20T11:52:54.815232Z

Period
94.27 min
Inclination
43.0034°
Eccentricity
0.0001615
Mean motion
15.27586913 rev/d
Perigee alt
481.9 km
Apogee alt
484.1 km
Semi-major
6,861.2 km
B*
3.1281e-4
RAAN
344.7182°
Arg perigee
271.3251°
Mean anomaly
88.7416°
Rev number
7,986

§ Raw data

STARLINK-336841 63649U 25083R   26263.49507888  .00008357  00000+0  31281-3 0  99942 63649  43.0034 344.7182 0001615 271.3251  88.7416 15.27586913 79868

JSON: /api/v1/satellites/63649 · /tle

For live sub-satellite position, see the globe view (requires WebGL).

§ Visibility from observer

Set your observer location to see the next 7 days of passes ≥ 10°. The values pass through the URL so the page stays shareable.

No JS? Fill the form by hand. The geolocation button needs JavaScript.